Location: ??????????
(44.2167°N, 135.5333°E)
Time: 14:54:21
(UTC+00:00)

Cosmos 968 Rocket - Pass Details

Date: 15 June 2025
Orbit: 736 x 766 km, 74.0° (Epoch: 16 July)

Event Time Altitude Azimuth Distance (km) Brightness Sun altitude
Exits shadow 14:57:11 35° 121° (ESE) 1,204 4.2 -22.4°
Maximum altitude 14:57:56 37° 102° (ESE) 1,165 4.3 -22.4°
Drops below altitude 10° 15:02:42 10° 36° (NE) 2,305 6.7 -22.4°
Sets 15:05:14 0° 29° (NNE) 3,238 7.8 -22.4°
